Home > Weather > San Salvador > Past weeks

Flag for El Salvador Weather for the Past 2 Weeks in San Salvador, El Salvador

Now
81 °F

Passing clouds.


Feels Like: 88 °F
Forecast: 69 / 87 °F
Wind: 1 mph from East

Location: El Salvador Intl. Airport / Comalapa

Current Time: Apr 30, 2016 at 11:15:56 PM

Latest Report: Apr 30, 2016 at 9:50 PM


Visibility: N/A

Pressure: 29.80 "Hg (27.62 "Hg at 667m altitude)

Humidity: 94%

Dew Point: 79 °F

Location of San SalvadorLocation

Historic Weather in San Salvador — Graph

°F

San Salvador Temperature Yesterday

Maximum temperature yesterday: 93 °F (at 11:50 AM)
Minimum temperature yesterday: 79 °F (at 3:50 AM)
Average temperature yesterday: 85 °F

High & Low Weather Summary for the Past Weeks

 TemperatureHumidityPressure
High99 °F (Apr 23, 9:50 AM)100% (Apr 28, 5:50 AM)29.92 "Hg (Apr 28, 5:50 AM)
Low73 °F (Apr 30, 5:50 AM)24% (Apr 23, 9:50 AM)29.71 "Hg (Apr 21, 3:50 PM)
Average85 °F76%29.80 "Hg
* Reported Apr 15 8:50 PM — Apr 30 8:50 PM, San Salvador, Weather by CustomWeather, © 2016

Note: Actual official high and low records may vary slightly from our data, if they occured in-between our weather recording intervals... More about our weather records

Advertising

San Salvador Weather History for the Previous 24 Hours

Scroll right to see more
 ConditionsComfort  
Time TempWeatherWind HumidityBarometerVisibility
8:50 PM
Sat, Apr 30
82 °FPassing clouds.1 mph89%29.80 "HgN/A
7:50 PM84 °FPassing clouds.2 mph84%29.80 "HgN/A
6:50 PM86 °FPassing clouds.5 mph79%29.77 "HgN/A
5:50 PM86 °FScattered clouds.6 mph79%29.74 "HgN/A
4:50 PM90 °FPassing clouds.6 mph71%29.71 "HgN/A
3:50 PM90 °FPassing clouds.6 mph67%29.71 "HgN/A
2:50 PM91 °FPassing clouds.8 mph67%29.74 "HgN/A
1:50 PM91 °FPassing clouds.8 mph63%29.74 "HgN/A
12:50 PM93 °FPassing clouds.10 mph59%29.77 "HgN/A
11:50 AM91 °FPassing clouds.7 mph59%29.80 "HgN/A
10:50 AM91 °FPassing clouds.8 mph59%29.80 "HgN/A
9:50 AM91 °FPassing clouds.6 mph56%29.80 "HgN/A
8:50 AM88 °FSunny.5 mph66%29.80 "Hg10 mi
7:50 AM86 °FPassing clouds.5 mph66%29.80 "HgN/A
6:50 AM81 °FClear.6 mph79%29.77 "Hg6 mi
5:50 AM73 °FRain. Cloudy.1 mph94%29.77 "Hg5 mi
4:50 AM75 °FClear.1 mph89%29.74 "Hg10 mi
3:50 AM77 °FClear.3 mph83%29.74 "Hg10 mi
2:50 AM77 °FClear.2 mph89%29.77 "Hg10 mi
1:50 AM79 °FClear.1 mph89%29.77 "Hg10 mi
12:50 AM79 °FClear.3 mph89%29.77 "Hg10 mi
11:50 PM
Fri, Apr 29
79 °FClear.3 mph89%29.80 "Hg10 mi
Weather by CustomWeather, © 2016

See weather overviewHow to use our weather pages